Tracking 35237 objects as of 5-Sep-2026
HD Live streaming from Space Station
objects crossing your sky now

SL-12 DEB


SL-12 DEB is no longer on orbit


NORAD ID: 29322
Int'l Code: 1989-039AD
Launch date: May 31, 1989
Source: Commonwealth of Independent States (former USSR) (CIS)
Launch site: TYURATAM MISSILE AND SPACE COMPLEX (TTMTR)
Decay date: 2008-04-11

Note: This is SATELLITE DEBRIS
Your satellite tracking list
Your tracking list is empty




NASA's NSSDC Master Catalog

Two Line Element Set (TLE):
1 29322U 89039AD  07011.52274947 +.01036138 +00000-0 +15000-0 0  9994
2 29322 064.9302 206.9995 5198443 064.7840 339.5661 05.30527805007293
Source of the keplerian elements: AFSPC